COSMOS 2556 (52713 NORAD) Tracking and Keplerian Element Data

This shows tracking and keplerian element data for the satellite.

Feedback or suggestion? Click here.




ElementValue
Catalog52713
NameCOSMOS 2556
Epoch Orbit11410
Epoch Day160.22294306
Epoch Year2024
RAAN88.4954
Inclination97.5653
Eccentricity0.0013626
Argument of Perigee236.6578
Mean Anonmoly123.3355
Mean Motion15.23433383
Decay Rate8.945E-05
L11 52713U 22054A 24160.22294306 .00008945 00000+0 37758-3 0 9990
L22 52713 97.5653 88.4954 0013626 236.6578 123.3355 15.23433383114102



Live tracking and technical data element details for COSMOS 2556 (NORAD 52713). COSMOS 2556 can be tracked NOW for your location showing map with azimuth and elevation plus other details from your city location.







IsCatalogInMostPopularTable: catalog: 52713, numindb: 977
Update: records affected: 1



GetName: 52713 COSMOS 2556

Hit Count: updated at: Tue, 17 Sep 2024 13:09:59 GMT